TimeEST,TemperatureF,Dew PointF,Humidity,Sea Level PressureIn,VisibilityMPH,Wind Direction,Wind SpeedMPH,Gust SpeedMPH,PrecipitationIn,Events,Conditions,WindDirDegrees,DateUTC
12:53 AM,21.9,1.0,40,30.06,10.0,WNW,9.2,-,N/A,,Clear,290,2013-02-02 05:53:00
1:53 AM,21.0,1.0,42,30.10,10.0,WNW,4.6,-,N/A,,Partly Cloudy,290,2013-02-02 06:53:00
2:53 AM,19.9,3.9,50,30.12,10.0,NW,4.6,-,N/A,,Clear,310,2013-02-02 07:53:00
3:53 AM,19.4,3.2,49,30.14,10.0,West,4.6,-,N/A,,Clear,280,2013-02-02 08:53:00
4:53 AM,17.1,3.9,56,30.16,10.0,Calm,Calm,-,N/A,,Clear,0,2013-02-02 09:53:00
5:53 AM,17.1,1.9,52,30.18,10.0,WNW,5.8,-,N/A,,Clear,290,2013-02-02 10:53:00
6:53 AM,17.6,1.4,49,30.20,10.0,WNW,3.5,-,N/A,,Clear,300,2013-02-02 11:53:00
7:53 AM,19.0,3.0,50,30.22,10.0,West,4.6,-,N/A,,Clear,260,2013-02-02 12:53:00
8:53 AM,21.0,1.9,44,30.22,10.0,West,9.2,-,N/A,,Clear,260,2013-02-02 13:53:00
9:53 AM,24.1,1.9,38,30.22,10.0,WSW,8.1,-,N/A,,Clear,240,2013-02-02 14:53:00
10:53 AM,24.1,-0.0,35,30.21,10.0,Variable,4.6,-,N/A,,Clear,0,2013-02-02 15:53:00
11:53 AM,27.0,1.0,33,30.18,10.0,West,10.4,-,N/A,,Clear,260,2013-02-02 16:53:00
12:53 PM,28.9,1.9,32,30.14,10.0,WSW,9.2,-,N/A,,Clear,240,2013-02-02 17:53:00
1:53 PM,30.0,3.0,32,30.11,10.0,SW,11.5,17.3,N/A,,Mostly Cloudy,230,2013-02-02 18:53:00
2:53 PM,28.4,3.2,34,30.09,10.0,WSW,13.8,-,N/A,,Mostly Cloudy,240,2013-02-02 19:53:00
3:53 PM,28.9,5.0,36,30.07,10.0,SSW,5.8,-,N/A,,Overcast,210,2013-02-02 20:53:00
4:53 PM,28.9,5.0,36,30.06,10.0,SW,4.6,-,N/A,,Mostly Cloudy,220,2013-02-02 21:53:00
5:53 PM,28.9,5.0,36,30.06,10.0,SW,12.7,-,N/A,,Overcast,220,2013-02-02 22:53:00
6:53 PM,28.0,5.0,38,30.06,10.0,SSW,6.9,-,N/A,,Mostly Cloudy,200,2013-02-02 23:53:00
7:53 PM,28.0,7.0,41,30.06,10.0,SW,8.1,-,N/A,,Scattered Clouds,220,2013-02-03 00:53:00
8:53 PM,39.0,8.1,28,30.04,10.0,SW,10.4,-,N/A,,Clear,230,2013-02-03 01:53:00
9:53 PM,41.0,9.0,27,30.04,10.0,SW,6.9,-,N/A,,Partly Cloudy,220,2013-02-03 02:53:00
10:53 PM,42.1,9.0,26,30.04,10.0,WSW,6.9,-,N/A,,Overcast,240,2013-02-03 03:53:00
11:53 PM,39.9,8.1,27,30.04,10.0,West,8.1,-,N/A,,Overcast,260,2013-02-03 04:53:00